Weather History for KJMS - July, 2013

Change the Weather History Date:

Wednesday, July 3, 2013

  Actual Average Record
Temperature  
Mean Temperature 75 °F 68 °F  
Max Temperature 89 °F 81 °F 94 °F (1989)
Min Temperature 61 °F 56 °F 37 °F (1917)
Degree Days  
Heating Degree Days 0 1  
Month to date heating degree days 0 3  
Since 1 June heating degree days 85 100  
Since 1 July heating degree days 0 3  
Cooling Degree Days 10 5  
Month to date cooling degree days 25 15  
Year to date cooling degree days 136 115  
Since 1 June cooling degree days 125 95  
Growing Degree Days 24 (Base 50)    
Moisture  
Dew Point 54 °F    
Average Humidity 59    
Maximum Humidity 90    
Minimum Humidity 28    
Precipitation  
Precipitation 0.00 in 0.12 in 1.34 in (1957)
Month to date precipitation 0.00 0.37  
Year to date precipitation 7.35 9.11  
Sea Level Pressure  
Sea Level Pressure 29.93 in    
Wind  
Wind Speed 8 mph (South)    
Max Wind Speed 20 mph    
Max Gust Speed 24 mph    
Visibility 10 miles    
Events      
T = Trace of Precipitation, MM = Missing Value Source: NWS Daily Summary

Daily Weather History Graph

Daily Weather History Graph

Search for Another Location

Airport or City:

Trip Planner

Search our weather history database for the weather conditions in past years. The results will help you decide how hot, cold, wet, or windy it might be!

Date:

Astronomy

Jul. 03, 2013 Rise Set
Actual Time 5:45 AM CDT 9:32 PM CDT
Civil Twilight 5:06 AM CDT 10:11 PM CDT
Nautical Twilight 4:12 AM CDT 11:04 PM CDT
Astronomical Twilight 2:56 AM CDT 12:20 AM CDT
Moon 2:32 AM CDT (7/3) 5:37 PM CDT (7/3)
Length of Visible Light 17h 05m
Length of Day
15h 46m
Waning Crescent, 18% of the Moon is Illuminated
Jul 3
Waning Crescent
Jul 8
New
Jul 15
First Quarter
Jul 22
Full
Jul 29
Last Quarter

Hourly Weather History & Observations

Time (CDT) Temp. Heat Index Dew Point Humidity Pressure Visibility Wind Dir Wind Speed Gust Speed Precip Events Conditions
12:56 AM 66.9 °F - 57.0 °F 70% 30.02 in 10.0 mi South 5.8 mph - N/A   Clear
1:56 AM 68.0 °F - 55.0 °F 63% 30.01 in 10.0 mi South 6.9 mph - N/A   Clear
2:56 AM 64.9 °F - 55.0 °F 70% 30.01 in 10.0 mi South 4.6 mph - N/A   Partly Cloudy
3:56 AM 63.0 °F - 55.9 °F 78% 30.00 in 10.0 mi Calm Calm - N/A   Mostly Cloudy
4:56 AM 61.0 °F - 57.0 °F 87% 30.00 in 10.0 mi Calm Calm - N/A   Clear
5:56 AM 63.0 °F - 57.9 °F 84% 30.00 in 10.0 mi Calm Calm - N/A   Overcast
6:56 AM 66.0 °F - 57.9 °F 75% 30.01 in 10.0 mi Calm Calm - N/A   Mostly Cloudy
7:56 AM 71.1 °F - 57.9 °F 63% 30.01 in 10.0 mi WSW 3.5 mph - N/A   Partly Cloudy
8:56 AM 75.0 °F - 55.9 °F 51% 29.99 in 10.0 mi SW 4.6 mph - N/A   Clear
9:56 AM 78.1 °F - 55.0 °F 45% 29.99 in 10.0 mi SSW 5.8 mph - N/A   Clear
10:56 AM 82.0 °F 81.4 °F 55.0 °F 39% 29.97 in 10.0 mi South 8.1 mph - N/A   Clear
11:56 AM 84.0 °F 82.5 °F 53.1 °F 34% 29.95 in 10.0 mi SSW 11.5 mph - N/A   Clear
12:56 PM 84.0 °F - 51.1 °F 32% 29.94 in 10.0 mi South 12.7 mph 20.7 mph N/A   Clear
1:56 PM 87.1 °F - 50.0 °F 28% 29.92 in 10.0 mi South 16.1 mph 24.2 mph N/A   Scattered Clouds
2:56 PM 87.1 °F - 50.0 °F 28% 29.91 in 10.0 mi South 15.0 mph 20.7 mph N/A   Clear
3:56 PM 87.1 °F - 50.0 °F 28% 29.90 in 10.0 mi South 11.5 mph - N/A   Partly Cloudy
4:56 PM 84.9 °F - 51.1 °F 31% 29.89 in 10.0 mi SSE 11.5 mph - N/A   Partly Cloudy
5:56 PM 86.0 °F - 51.1 °F 30% 29.87 in 10.0 mi South 12.7 mph - N/A   Clear
6:56 PM 84.9 °F - 51.1 °F 31% 29.86 in 10.0 mi South 11.5 mph - N/A   Clear
7:56 PM 82.9 °F - 51.1 °F 33% 29.84 in 10.0 mi SSE 8.1 mph - N/A   Clear
8:56 PM 78.1 °F - 53.1 °F 42% 29.83 in 10.0 mi SSE 6.9 mph - N/A   Clear
9:56 PM 73.9 °F - 53.1 °F 48% 29.83 in 10.0 mi SE 8.1 mph - N/A   Clear
10:56 PM 73.0 °F - 55.9 °F 55% 29.82 in 10.0 mi SSE 9.2 mph - N/A   Clear
11:56 PM 71.1 °F - 57.9 °F 63% 29.81 in 10.0 mi South 9.2 mph - N/A   Clear